Location: Plainartige
(45.6866°N, 1.7993°E)
Time: 01:39:06
(UTC+00:00)

RS-15 - Pass Details

Date: 04 July 2022
Orbit: 1881 x 2163 km, 64.8° (Epoch: 10 August)

Event Time Altitude Azimuth Distance (km) Brightness Sun altitude
Rises 00:07:32 0° 323° (NW) 5,699 11.2 -21.4°
Reaches altitude 10° 00:11:10 10° 318° (NW) 4,687 10.6 -21.3°
Maximum altitude 00:22:39 49° 250° (WSW) 2,597 8.4 -21.2°
Enters shadow 00:28:48 28° 194° (SSW) 3,305 8.6 -21.0°
